FW5442 Weather Reports


time (UTC)temp
F
wind
direction
speed
knots
gust
knots
rain 1hr
in
rain 24hr
in
rain mn
in
humidity
%
barometer
mb
20260502164055 66 300 0.0 12.2 0.00 0.00 0.00 41 1019.0
20260502163555 66 0 3.5 12.2 0.00 0.00 0.00 37 1019.2
20260502163102 66 326 7.0 10.4 0.00 0.00 0.00 38 1019.1
20260502162556 66 295 4.3 11.3 0.00 0.00 0.00 41 1019.2
20260502162052 65 340 5.2 11.3 0.00 0.00 0.00 38 1019.1
20260502161601 66 331 4.3 9.6 0.00 0.00 0.00 42 1019.2
20260502161052 65 0 0.0 7.8 0.00 0.00 0.00 46 1019.1
20260502160556 65 0 0.9 7.8 0.00 0.00 0.00 45 1019.2
20260502152056 63 0 0.0 6.1 0.00 0.00 0.00 53 1019.3
20260502151557 62 0 0.0 6.1 0.00 0.00 0.00 52 1019.2
20260502151055 62 311 0.0 6.1 0.00 0.00 0.00 53 1019.2
20260502150555 62 0 2.6 6.1 0.00 0.00 0.00 52 1019.3
20260502150110 62 0 2.6 5.2 0.00 0.00 0.00 54 1019.1
20260502130552 55 333 4.3 6.1 0.00 0.00 0.00 71 1018.2
20260502130109 54 339 4.3 6.1 0.00 0.00 0.00 76 1018.1
20260502123552 52 334 2.6 4.3 0.00 0.00 0.00 80 1017.9
20260502123101 51 328 2.6 4.3 0.00 0.00 0.00 80 1017.8
20260502122553 51 0 0.0 0.0 0.00 0.00 0.00 81 1017.8
20260502122052 51 0 0.0 0.0 0.00 0.00 0.00 81 1017.7
20260502121555 50 0 0.0 0.0 0.00 0.00 0.00 79 1017.5
20260502121053 50 0 0.0 0.0 0.00 0.00 0.00 79 1017.4
20260502120555 50 0 0.0 0.0 0.00 0.00 0.00 79 1017.3
20260502115555 49 0 0.0 0.0 0.00 0.00 0.00 79 1017.3
20260502115059 49 0 0.0 0.0 0.00 0.00 0.00 79 1017.1
20260502114558 49 0 0.0 0.0 0.00 0.00 0.00 79 1017.3
20260502114056 49 0 0.0 0.0 0.00 0.00 0.00 79 1017.2
20260502113606 49 0 0.0 0.0 0.00 0.00 0.00 79 1017.1
20260502113056 49 0 0.0 0.0 0.00 0.00 0.00 79 1017.1
20260502112555 49 0 0.0 0.0 0.00 0.00 0.00 79 1017.0
20260502112055 49 0 0.0 0.0 0.00 0.00 0.00 80 1016.9
20260502111556 49 0 0.0 0.0 0.00 0.00 0.00 80 1016.8
20260502111056 49 0 0.0 0.0 0.00 0.00 0.00 80 1016.9
20260502110552 49 0 0.0 0.0 0.00 0.00 0.00 79 1016.7
20260502110057 49 0 0.0 0.0 0.00 0.00 0.00 78 1016.6
20260502105555 50 0 0.0 0.0 0.00 0.00 0.00 77 1016.6
20260502105055 50 0 0.0 0.0 0.00 0.00 0.00 77 1016.6
20260502104555 50 0 0.0 0.0 0.00 0.00 0.00 76 1016.5
20260502104056 50 0 0.0 0.0 0.00 0.00 0.00 76 1016.3
20260502103556 50 0 0.0 0.0 0.00 0.00 0.00 76 1016.1
20260502103054 50 0 0.0 0.0 0.00 0.00 0.00 76 1015.9
20260502102555 50 0 0.0 0.0 0.00 0.00 0.00 76 1016.1
20260502102055 50 0 0.0 0.0 0.00 0.00 0.00 76 1016.0
20260502101556 50 0 0.0 0.0 0.00 0.00 0.00 76 1015.9
20260502101055 50 0 0.0 0.0 0.00 0.00 0.00 76 1015.8
20260502100556 51 0 0.0 0.0 0.00 0.00 0.00 76 1015.8
20260502091054 52 341 2.6 3.5 0.00 0.00 0.00 74 1015.8
20260502090554 52 340 2.6 3.5 0.00 0.00 0.00 74 1015.8
20260502080106 54 0 0.0 0.0 0.00 0.00 0.00 72 1015.4
20260502071052 55 0 0.0 0.0 0.00 0.00 0.00 70 1015.7
20260502070552 56 0 0.0 0.0 0.00 0.00 0.00 68 1015.8
20260502070055 56 0 0.0 0.0 0.00 0.00 0.00 67 1015.7
20260502065552 56 0 0.0 5.2 0.00 0.00 0.00 65 1015.7
20260502065054 56 0 0.0 5.2 0.00 0.00 0.00 63 1015.7
20260502064559 57 0 3.5 5.2 0.00 0.00 0.00 61 1015.8
20260502064055 57 9 0.0 0.0 0.00 0.00 0.00 61 1015.9
20260502063555 57 0 0.0 1.7 0.00 0.00 0.00 60 1016.1
20260502063120 57 0 0.0 1.7 0.00 0.00 0.00 59 1016.1
20260502062554 57 0 0.0 0.0 0.00 0.00 0.00 59 1016.0
20260502062055 57 0 0.0 0.0 0.00 0.00 0.00 59 1016.1
20260502061558 57 0 0.0 0.0 0.00 0.00 0.00 58 1015.9
20260502061051 57 0 0.0 0.0 0.00 0.00 0.00 58 1016.0
20260502060555 57 0 0.0 0.0 0.00 0.00 0.00 58 1016.0
20260502060058 57 0 0.0 3.5 0.00 0.00 0.00 58 1016.1
20260502055556 57 0 0.0 3.5 0.00 0.00 0.00 58 1016.0
20260502055056 57 0 0.0 3.5 0.00 0.00 0.00 58 1016.0
20260502054608 57 0 0.0 0.0 0.00 0.00 0.00 58 1016.1
20260502054052 58 0 0.0 0.0 0.00 0.00 0.00 59 1016.2
20260502053555 58 0 0.0 0.0 0.00 0.00 0.00 58 1016.4
20260502053103 58 0 0.0 0.0 0.00 0.00 0.00 58 1015.9
20260502052555 58 0 0.0 0.0 0.00 0.00 0.00 58 1016.1
20260502052101 58 0 0.0 0.0 0.00 0.00 0.00 58 1016.3
20260502051558 58 0 0.0 0.0 0.00 0.00 0.00 58 1016.4
20260502051054 58 0 0.0 3.5 0.00 0.00 0.00 58 1016.3
20260502050625 58 0 0.0 5.2 0.00 0.00 0.00 58 1016.2
20260502050054 58 0 0.0 5.2 0.00 0.00 0.00 58 1016.2
20260502045556 58 0 0.0 6.1 0.00 0.00 0.00 58 1016.1
20260502045054 58 0 0.0 6.1 0.00 0.00 0.00 58 1016.0
20260502044555 58 0 0.0 7.8 0.00 0.00 0.00 58 1016.0
20260502044057 58 0 0.9 7.8 0.00 0.00 0.00 58 1015.9
20260502043555 58 46 0.9 7.8 0.00 0.00 0.00 58 1015.9
20260502043059 58 358 0.9 7.0 0.00 0.00 0.00 58 1015.9
20260502042554 58 343 0.0 8.7 0.00 0.00 0.00 58 1015.9
20260502042054 58 13 0.9 9.6 0.00 0.00 0.00 58 1015.9
20260502041557 58 13 4.3 9.6 0.00 0.00 0.00 58 1015.8
20260502041055 58 18 2.6 8.7 0.00 0.00 0.00 58 1015.8
20260502040555 58 338 0.9 9.6 0.00 0.00 0.00 58 1015.7
20260502040101 58 5 3.5 9.6 0.00 0.00 0.00 59 1015.8
20260502035556 58 22 0.0 9.6 0.00 0.00 0.00 59 1015.7
20260502035052 58 4 2.6 9.6 0.00 0.00 0.00 59 1015.7
20260502034558 58 339 1.7 7.8 0.00 0.00 0.00 60 1015.6
20260502034056 58 0 3.5 7.8 0.00 0.00 0.00 61 1015.5
20260502033555 58 4 0.0 7.8 0.00 0.00 0.00 61 1015.7
20260502033055 58 0 3.5 7.0 0.00 0.00 0.00 62 1015.7
20260502032554 58 336 1.7 7.0 0.00 0.00 0.00 63 1015.6
20260502032054 58 322 2.6 7.0 0.00 0.00 0.00 63 1015.6
20260502031552 58 0 2.6 7.0 0.00 0.00 0.00 63 1015.5
20260502031055 57 321 1.7 7.0 0.00 0.00 0.00 64 1015.5
20260502030552 57 0 0.0 7.0 0.00 0.00 0.00 64 1015.3
20260502030056 58 358 3.5 7.0 0.00 0.00 0.00 65 1015.2
20260502025556 58 334 1.7 8.7 0.00 0.00 0.00 65 1015.1
20260502025058 58 0 3.5 8.7 0.00 0.00 0.00 64 1015.2
20260502024606 58 0 0.0 6.1 0.00 0.00 0.00 64 1015.4
20260502024052 58 342 0.9 7.0 0.00 0.00 0.00 63 1015.5
20260502023556 58 0 2.6 7.0 0.00 0.00 0.00 62 1015.5
20260502023054 58 10 1.7 7.0 0.00 0.00 0.00 63 1015.2
20260502022556 58 0 0.0 6.1 0.00 0.00 0.00 64 1015.4
20260502022054 58 0 0.9 6.1 0.00 0.00 0.00 63 1015.4
20260502021558 58 323 1.7 6.1 0.00 0.00 0.00 63 1015.4
20260502021056 58 323 0.9 7.0 0.00 0.00 0.00 63 1015.3
20260502020552 58 0 3.5 7.0 0.00 0.00 0.00 64 1015.1
20260502020052 58 0 1.7 7.0 0.00 0.00 0.00 66 1015.1
20260502015555 58 0 0.9 7.0 0.00 0.00 0.00 69 1014.9
20260502015055 58 337 0.9 7.0 0.00 0.00 0.00 68 1014.9
20260502014553 59 0 0.9 7.8 0.00 0.00 0.00 66 1014.9
20260502014055 59 0 0.9 9.6 0.00 0.00 0.00 63 1015.0
20260502013555 59 335 4.3 10.4 0.00 0.00 0.00 62 1015.2
20260502013056 59 332 6.1 10.4 0.00 0.00 0.00 63 1015.5
20260502012553 59 335 3.5 10.4 0.00 0.00 0.00 64 1015.5
20260502012056 59 330 0.0 5.2 0.00 0.00 0.00 64 1015.4
20260502011553 59 333 0.0 7.0 0.00 0.00 0.00 64 1015.4
20260502011052 60 0 2.6 7.8 0.00 0.00 0.00 61 1015.4
20260502010554 60 329 0.9 7.8 0.00 0.00 0.00 59 1015.5
20260502010055 60 0 4.3 7.8 0.00 0.00 0.00 59 1015.6
20260502005555 60 0 1.7 7.8 0.00 0.00 0.00 59 1015.5
20260502005055 60 333 0.9 8.7 0.00 0.00 0.00 59 1015.7
20260502004554 60 326 1.7 8.7 0.00 0.00 0.00 59 1015.4
20260502004051 61 0 2.6 9.6 0.00 0.00 0.00 59 1015.5
20260502003554 61 342 4.3 10.4 0.00 0.00 0.00 58 1015.2
20260502003056 61 328 4.3 10.4 0.00 0.00 0.00 58 1015.0
20260502002557 61 19 5.2 8.7 0.00 0.00 0.00 59 1014.7
20260502002052 61 326 3.5 7.0 0.00 0.00 0.00 60 1014.6
20260502001556 61 338 3.5 7.0 0.00 0.00 0.00 58 1014.4
20260502001055 61 330 1.7 8.7 0.00 0.00 0.00 59 1014.3
20260502000556 61 0 0.9 8.7 0.00 0.00 0.00 61 1014.4
20260501235551 62 11 4.3 7.8 0.00 0.00 0.00 60 1014.1
20260501235054 62 0 0.0 7.8 0.00 0.00 0.00 61 1014.1
20260501234558 62 0 4.3 7.8 0.00 0.00 0.00 60 1014.1
20260501234056 62 354 2.6 8.7 0.00 0.00 0.00 60 1014.1
20260501233555 62 7 2.6 8.7 0.00 0.00 0.00 60 1014.1
20260501233058 62 342 3.5 7.8 0.00 0.00 0.00 60 1014.2
20260501232552 62 0 0.0 9.6 0.00 0.00 0.00 59 1014.2
20260501232051 62 333 3.5 9.6 0.00 0.00 0.00 58 1014.1
20260501231631 63 355 3.5 9.6 0.00 0.00 0.00 58 1014.1
20260501231053 63 340 4.3 11.3 0.00 0.00 0.00 58 1014.3
20260501230554 63 2 1.7 11.3 0.00 0.00 0.00 57 1014.1
20260501230059 63 345 0.9 12.2 0.00 0.00 0.00 57 1013.9
20260501225554 63 17 5.2 12.2 0.00 0.00 0.00 56 1013.8
20260501225054 64 31 7.0 12.2 0.00 0.00 0.00 55 1013.5
20260501224611 64 352 4.3 12.2 0.00 0.00 0.00 55 1013.8
20260501224055 64 10 3.5 10.4 0.00 0.00 0.00 54 1013.9
20260501223556 64 0 4.3 10.4 0.00 0.00 0.00 55 1013.9
20260501223055 65 0 5.2 12.2 0.00 0.00 0.00 54 1013.8
20260501222555 65 0 5.2 12.2 0.00 0.00 0.00 55 1013.6
20260501222056 65 346 7.8 13.9 0.00 0.00 0.00 54 1013.5
20260501221608 65 321 3.5 13.9 0.00 0.00 0.00 55 1013.4
20260501221054 65 0 7.0 15.6 0.00 0.00 0.00 54 1013.4
20260501220555 65 56 7.0 15.6 0.00 0.00 0.00 55 1013.1
20260501220054 65 11 5.2 12.2 0.00 0.00 0.00 54 1013.2
20260501215555 65 356 5.2 13.9 0.00 0.00 0.00 54 1013.1
20260501215055 65 7 5.2 13.9 0.00 0.00 0.00 55 1013.0
20260501214553 65 326 2.6 13.9 0.00 0.00 0.00 57 1013.3
20260501214055 64 27 3.5 13.9 0.00 0.00 0.00 57 1013.1
20260501213555 64 14 5.2 13.0 0.00 0.00 0.00 56 1013.1
20260501213054 64 28 6.1 12.2 0.00 0.00 0.00 56 1013.3
20260501212555 64 0 3.5 11.3 0.00 0.00 0.00 57 1013.4
20260501212055 64 6 3.5 11.3 0.00 0.00 0.00 58 1013.4
20260501211607 65 20 2.6 9.6 0.00 0.00 0.00 58 1013.4
20260501211054 64 0 0.9 11.3 0.00 0.00 0.00 58 1013.5
20260501210551 64 58 1.7 11.3 0.00 0.00 0.00 58 1013.8
20260501210057 64 0 3.5 9.6 0.00 0.00 0.00 59 1013.7
20260501205556 64 0 2.6 12.2 0.00 0.00 0.00 58 1013.9
20260501205055 64 44 3.5 12.2 0.00 0.00 0.00 56 1013.9
20260501204557 64 39 0.9 15.6 0.00 0.00 0.00 57 1013.7
20260501204054 64 0 7.8 15.6 0.00 0.00 0.00 56 1013.6
20260501203554 64 0 2.6 9.6 0.00 0.00 0.00 57 1013.8
20260501203052 64 0 0.0 13.0 0.00 0.00 0.00 55 1013.7
20260501202554 64 0 1.7 13.0 0.00 0.00 0.00 56 1014.0
20260501202054 64 0 4.3 13.0 0.00 0.00 0.00 55 1014.0
20260501201554 64 0 0.9 13.9 0.00 0.00 0.00 56 1014.3
20260501201056 64 0 6.1 13.9 0.00 0.00 0.00 54 1014.5
20260501200554 65 4 1.7 12.2 0.00 0.00 0.00 54 1014.5
20260501200053 65 0 0.9 11.3 0.00 0.00 0.00 57 1014.6
20260501195556 65 0 0.0 11.3 0.00 0.00 0.00 58 1014.6
20260501195055 64 359 0.0 9.6 0.00 0.00 0.00 61 1014.5
20260501194606 64 0 0.0 9.6 0.00 0.00 0.00 60 1014.9
20260501194055 64 52 0.0 7.0 0.00 0.00 0.00 61 1014.8
20260501193554 64 0 0.0 7.0 0.00 0.00 0.00 63 1014.8
20260501193053 64 0 0.0 7.0 0.00 0.00 0.00 62 1015.0
20260501192557 63 0 0.0 6.1 0.00 0.00 0.00 63 1015.1
20260501192051 63 0 0.0 7.0 0.00 0.00 0.00 62 1015.3
20260501191555 64 0 0.0 7.0 0.00 0.00 0.00 62 1015.5
20260501191052 64 0 0.0 0.9 0.00 0.00 0.00 62 1015.6
20260501190555 63 0 0.0 4.3 0.00 0.00 0.00 63 1015.7
20260501190053 63 0 0.0 4.3 0.00 0.00 0.00 63 1015.7
20260501185554 63 0 0.0 4.3 0.00 0.00 0.00 62 1015.7
20260501185054 63 0 0.0 0.0 0.00 0.00 0.00 63 1015.7
20260501184553 63 0 0.0 0.9 0.00 0.00 0.00 62 1015.7
20260501184054 63 0 0.0 0.9 0.00 0.00 0.00 63 1015.8
20260501183555 63 0 0.0 0.9 0.00 0.00 0.00 63 1015.9
20260501183058 63 0 0.0 2.6 0.00 0.00 0.00 63 1016.2
20260501182554 62 0 0.0 3.5 0.00 0.00 0.00 63 1016.2
20260501182056 62 0 0.0 3.5 0.00 0.00 0.00 62 1016.4
20260501181552 62 0 0.0 0.0 0.00 0.00 0.00 62 1016.5
20260501181052 62 0 0.0 0.0 0.00 0.00 0.00 64 1016.5
20260501180551 62 0 0.0 0.0 0.00 0.00 0.00 64 1016.6
20260501180100 62 0 0.0 0.0 0.00 0.00 0.00 64 1016.6
20260501175555 62 0 0.0 0.0 0.00 0.00 0.00 63 1016.7
20260501175051 62 0 0.0 0.0 0.00 0.00 0.00 63 1016.7
20260501174558 62 0 0.0 0.0 0.00 0.00 0.00 64 1016.8
20260501174055 62 0 0.0 0.0 0.00 0.00 0.00 63 1017.0
20260501173555 62 0 0.0 0.0 0.00 0.00 0.00 62 1017.0
20260501173056 62 0 0.0 0.0 0.00 0.00 0.00 64 1017.1
20260501172552 62 0 0.0 0.0 0.00 0.00 0.00 63 1017.2